Вернуться в каталог

CSTP-1.2

АктивенНаукаSSO
NORAD 57186·PAYLOAD·🇷🇺 Russia
Это название спутника еще не подтверждено официальными источниками.

Запущен Jun 27, 2023 с Vostochny Cosmodrome

Loading…

Ближайшие Пролёты (ближайшие 24 часа)

TLE

СвежийSource: Space-Track

Эпоха: Sep 14, 2026, 22:22 UTC

1 57186U 23091W   26257.93234518  .00008307  00000-0  28581-3 0  9994
2 57186  97.5059 325.1163 0018829 132.8208 227.4619 15.30158633178177

Отслеживайте CSTP-1.2 в реальном времени с AllMySat

Download on the App Store